SWA535 KPHX-KBUR

Flight info

Callsign SWA535
Flight time 1h 8m
Altitude 30000
Route KEENS3 HRRBR PHRED THRNE4
Aircraft B737/M-SDE2E3FGHIRWXY/LB1

Departure

Time 2026-05-04 01:38
Airport Phoenix Sky Harbor International Airport (KPHX)

Arrival

Time 2026-05-04 02:47
Airport Hollywood Burbank/Bob Hope Airport (KBUR)
Time Latitude Longitude Altitude Speed Heading
2026-05-04 01:20 33.43442 -111.99635 1129 ft 0 kts 273°
2026-05-04 01:26 33.43443 -111.99610 1129 ft 2 kts 267°
2026-05-04 01:26 33.43440 -111.99588 1135 ft 4 kts 336°
2026-05-04 01:26 33.43417 -111.99579 1130 ft 4 kts 342°
2026-05-04 01:26 33.43397 -111.99572 1132 ft 4 kts 351°
2026-05-04 01:27 33.43371 -111.99572 1134 ft 4 kts 10°
2026-05-04 01:27 33.43344 -111.99577 1132 ft 4 kts 357°
2026-05-04 01:27 33.43318 -111.99574 1134 ft 4 kts 352°
2026-05-04 01:27 33.43293 -111.99569 1132 ft 2 kts 346°
2026-05-04 01:28 33.43288 -111.99567 1133 ft 0 kts 346°
2026-05-04 01:29 33.43290 -111.99565 1132 ft 1 kts 15°
2026-05-04 01:30 33.43290 -111.99555 1136 ft 0 kts 93°
2026-05-04 01:30 33.43286 -111.99525 1131 ft 9 kts 100°
2026-05-04 01:31 33.43283 -111.99440 1130 ft 10 kts 90°
2026-05-04 01:31 33.43283 -111.99355 1132 ft 10 kts 90°
2026-05-04 01:31 33.43282 -111.99276 1132 ft 9 kts 95°
2026-05-04 01:31 33.43243 -111.99235 1134 ft 8 kts 188°
2026-05-04 01:32 33.43211 -111.99262 1132 ft 3 kts 223°
2026-05-04 01:32 33.43200 -111.99275 1134 ft 0 kts 225°
2026-05-04 01:33 33.43199 -111.99276 1133 ft 2 kts 225°
2026-05-04 01:34 33.43163 -111.99319 1136 ft 9 kts 224°
2026-05-04 01:34 33.43121 -111.99347 1136 ft 5 kts 184°
2026-05-04 01:34 33.43104 -111.99373 1135 ft 4 kts 265°
2026-05-04 01:34 33.43104 -111.99382 1135 ft 0 kts 270°
2026-05-04 01:37 33.43104 -111.99390 1134 ft 8 kts 270°
2026-05-04 01:37 33.43104 -111.99754 1134 ft 81 kts 270°
2026-05-04 01:38 33.43104 -112.00689 1180 ft 137 kts 268°
2026-05-04 01:38 33.43072 -112.01913 1686 ft 156 kts 268°
2026-05-04 01:38 33.43020 -112.03281 2251 ft 171 kts 263°
2026-05-04 01:38 33.42967 -112.04675 3176 ft 166 kts 261°
2026-05-04 01:39 33.42899 -112.06155 3671 ft 193 kts 262°
2026-05-04 01:39 33.42700 -112.07849 3986 ft 219 kts 250°
2026-05-04 01:39 33.42171 -112.09690 4251 ft 251 kts 247°
2026-05-04 01:39 33.41539 -112.11683 5103 ft 256 kts 246°
2026-05-04 01:40 33.40889 -112.13683 6046 ft 265 kts 246°
2026-05-04 01:40 33.40228 -112.15783 6888 ft 272 kts 246°
2026-05-04 01:40 33.39582 -112.17895 7654 ft 271 kts 247°
2026-05-04 01:40 33.39173 -112.20074 7881 ft 270 kts 266°
2026-05-04 01:41 33.39352 -112.22364 7981 ft 283 kts 275°
2026-05-04 01:41 33.39714 -112.24681 8180 ft 285 kts 278°
2026-05-04 01:41 33.40122 -112.27039 8834 ft 294 kts 276°
2026-05-04 01:41 33.40485 -112.29425 9930 ft 291 kts 275°
2026-05-04 01:42 33.40837 -112.31827 10703 ft 301 kts 276°
2026-05-04 01:42 33.41213 -112.34395 11011 ft 326 kts 275°
2026-05-04 01:42 33.41610 -112.37136 11542 ft 341 kts 276°
2026-05-04 01:42 33.42035 -112.40011 11934 ft 360 kts 276°
2026-05-04 01:43 33.42485 -112.43016 12544 ft 370 kts 277°
2026-05-04 01:43 33.42940 -112.46073 13326 ft 375 kts 276°
2026-05-04 01:43 33.43408 -112.49153 14073 ft 379 kts 276°
2026-05-04 01:43 33.43858 -112.52269 14818 ft 381 kts 276°
2026-05-04 01:44 33.44311 -112.55385 15695 ft 380 kts 276°
2026-05-04 01:44 33.44778 -112.58489 16646 ft 377 kts 276°
2026-05-04 01:44 33.45149 -112.61583 17536 ft 374 kts 270°
2026-05-04 01:44 33.45196 -112.64709 18154 ft 379 kts 267°
2026-05-04 01:45 33.45174 -112.67888 18674 ft 384 kts 267°
2026-05-04 01:45 33.45171 -112.71089 19376 ft 384 kts 268°
2026-05-04 01:45 33.45239 -112.77467 20770 ft 384 kts 269°
2026-05-04 01:46 33.45343 -112.80679 21311 ft 388 kts 274°
2026-05-04 01:46 33.45644 -112.82798 21688 ft 392 kts 278°
2026-05-04 01:46 33.46241 -112.85995 22255 ft 395 kts 280°
2026-05-04 01:46 33.46884 -112.89198 22812 ft 397 kts 280°
2026-05-04 01:47 33.47532 -112.92418 23348 ft 398 kts 280°
2026-05-04 01:47 33.48376 -112.96707 23936 ft 400 kts 280°
2026-05-04 01:47 33.48797 -112.98899 24246 ft 401 kts 279°
2026-05-04 01:47 33.49415 -113.02157 24693 ft 402 kts 279°
2026-05-04 01:48 33.50027 -113.05426 25136 ft 402 kts 279°
2026-05-04 01:48 33.50637 -113.08703 25588 ft 403 kts 279°
2026-05-04 01:48 33.51245 -113.11988 26043 ft 404 kts 279°
2026-05-04 01:48 33.51853 -113.15274 26461 ft 405 kts 279°
2026-05-04 01:49 33.52462 -113.18577 26878 ft 406 kts 279°
2026-05-04 01:49 33.53069 -113.21866 27439 ft 403 kts 279°
2026-05-04 01:49 33.53670 -113.25124 28117 ft 398 kts 279°
2026-05-04 01:49 33.54262 -113.28340 28836 ft 392 kts 279°
2026-05-04 01:50 33.54846 -113.31519 29507 ft 389 kts 279°
2026-05-04 01:50 33.55426 -113.34689 29754 ft 391 kts 279°
2026-05-04 01:50 33.56591 -113.41066 29765 ft 390 kts 279°
2026-05-04 01:51 33.57739 -113.47358 30153 ft 389 kts 278°
2026-05-04 01:51 33.58897 -113.53691 30167 ft 388 kts 279°
2026-05-04 01:52 33.60081 -113.60013 30158 ft 389 kts 279°
2026-05-04 01:52 33.61265 -113.66339 30162 ft 389 kts 279°
2026-05-04 01:53 33.62442 -113.72665 30112 ft 389 kts 279°
2026-05-04 01:53 33.63615 -113.78997 30031 ft 388 kts 278°
2026-05-04 01:54 33.64780 -113.85323 29956 ft 388 kts 277°
2026-05-04 01:54 33.64981 -113.91708 29879 ft 383 kts 267°
2026-05-04 01:55 33.64835 -113.98096 29806 ft 383 kts 267°
2026-05-04 01:55 33.64724 -114.04491 29760 ft 384 kts 267°
2026-05-04 01:56 33.64622 -114.10892 29775 ft 383 kts 267°
2026-05-04 01:56 33.64971 -114.17298 29757 ft 386 kts 274°
2026-05-04 01:57 33.65669 -114.23697 29754 ft 386 kts 274°
2026-05-04 01:57 33.66356 -114.30092 29761 ft 386 kts 274°
2026-05-04 01:58 33.67004 -114.36473 29758 ft 385 kts 274°
2026-05-04 01:58 33.67635 -114.42857 29743 ft 385 kts 274°
2026-05-04 01:59 33.68255 -114.49228 29745 ft 384 kts 273°
2026-05-04 01:59 33.68872 -114.55603 29742 ft 384 kts 273°
2026-05-04 02:00 33.69485 -114.61971 30378 ft 385 kts 274°
2026-05-04 02:00 33.69790 -114.65167 29748 ft 385 kts 273°
2026-05-04 02:00 33.70096 -114.68363 29738 ft 386 kts 273°
2026-05-04 02:01 33.70707 -114.74772 29742 ft 387 kts 273°
2026-05-04 02:01 33.71316 -114.81194 29747 ft 387 kts 273°
2026-05-04 02:02 33.71923 -114.87623 29760 ft 388 kts 273°
2026-05-04 02:02 33.72522 -114.94022 29742 ft 388 kts 273°
2026-05-04 02:03 33.73122 -115.00465 29752 ft 388 kts 273°
2026-05-04 02:03 33.73719 -115.06889 29754 ft 386 kts 273°
2026-05-04 02:04 33.74306 -115.13271 29761 ft 383 kts 273°
2026-05-04 02:04 33.74899 -115.19624 29748 ft 381 kts 273°
2026-05-04 02:05 33.75545 -115.25928 29756 ft 380 kts 274°
2026-05-04 02:05 33.76192 -115.32226 29763 ft 380 kts 273°
2026-05-04 02:06 33.76824 -115.38449 29201 ft 370 kts 273°
2026-05-04 02:06 33.77131 -115.41499 28653 ft 364 kts 273°
2026-05-04 02:06 33.77437 -115.44472 28341 ft 354 kts 273°
2026-05-04 02:07 33.77743 -115.47429 28016 ft 364 kts 273°
2026-05-04 02:07 33.78060 -115.50508 27672 ft 378 kts 274°
2026-05-04 02:07 33.78386 -115.53654 27310 ft 380 kts 274°
2026-05-04 02:07 33.78712 -115.56798 26952 ft 378 kts 274°
2026-05-04 02:08 33.79035 -115.59928 26614 ft 377 kts 274°
2026-05-04 02:08 33.79347 -115.63053 26261 ft 376 kts 274°
2026-05-04 02:08 33.79652 -115.66178 25936 ft 375 kts 273°
2026-05-04 02:08 33.79951 -115.69288 25585 ft 374 kts 273°
2026-05-04 02:09 33.80251 -115.72395 25245 ft 374 kts 273°
2026-05-04 02:09 33.80550 -115.75489 24901 ft 373 kts 273°
2026-05-04 02:09 33.80849 -115.78585 24561 ft 373 kts 274°
2026-05-04 02:09 33.81147 -115.81680 24224 ft 372 kts 274°
2026-05-04 02:10 33.81453 -115.84775 23875 ft 373 kts 274°
2026-05-04 02:10 33.81768 -115.87878 23520 ft 374 kts 274°
2026-05-04 02:10 33.82084 -115.90980 23158 ft 373 kts 274°
2026-05-04 02:10 33.82394 -115.94028 22796 ft 372 kts 274°
2026-05-04 02:11 33.82706 -115.97105 22456 ft 369 kts 273°
2026-05-04 02:11 33.83014 -116.00156 22094 ft 366 kts 273°
2026-05-04 02:11 33.83318 -116.03180 21752 ft 363 kts 273°
2026-05-04 02:11 33.83619 -116.06184 21420 ft 361 kts 273°
2026-05-04 02:12 33.83916 -116.09166 21101 ft 359 kts 273°
2026-05-04 02:12 33.84212 -116.12150 20772 ft 358 kts 273°
2026-05-04 02:12 33.84470 -116.15132 20398 ft 359 kts 272°
2026-05-04 02:12 33.84697 -116.18118 20041 ft 359 kts 271°
2026-05-04 02:13 33.84917 -116.21106 19662 ft 358 kts 271°
2026-05-04 02:13 33.85137 -116.24084 19290 ft 357 kts 271°
2026-05-04 02:13 33.85361 -116.27052 18942 ft 355 kts 271°
2026-05-04 02:13 33.85586 -116.30009 18566 ft 355 kts 271°
2026-05-04 02:14 33.85810 -116.32964 18198 ft 354 kts 271°
2026-05-04 02:14 33.86034 -116.35909 17800 ft 353 kts 271°
2026-05-04 02:14 33.86294 -116.38841 17424 ft 352 kts 272°
2026-05-04 02:14 33.86581 -116.41762 17071 ft 351 kts 272°
2026-05-04 02:15 33.86869 -116.44671 16725 ft 350 kts 272°
2026-05-04 02:15 33.87151 -116.47588 16372 ft 351 kts 272°
2026-05-04 02:15 33.87429 -116.50507 16032 ft 352 kts 272°
2026-05-04 02:15 33.87726 -116.53433 15739 ft 352 kts 275°
2026-05-04 02:16 33.88164 -116.56328 15526 ft 352 kts 277°
2026-05-04 02:16 33.88650 -116.59203 15320 ft 349 kts 277°
2026-05-04 02:16 33.89122 -116.62056 15096 ft 346 kts 277°
2026-05-04 02:16 33.89577 -116.64888 14894 ft 343 kts 277°
2026-05-04 02:17 33.90024 -116.67700 14701 ft 342 kts 276°
2026-05-04 02:17 33.90469 -116.70509 14517 ft 341 kts 276°
2026-05-04 02:17 33.90912 -116.73301 14358 ft 339 kts 276°
2026-05-04 02:17 33.91354 -116.76098 14189 ft 340 kts 276°
2026-05-04 02:18 33.91797 -116.78917 14014 ft 343 kts 277°
2026-05-04 02:18 33.92247 -116.81777 13845 ft 352 kts 277°
2026-05-04 02:18 33.92704 -116.84670 13658 ft 352 kts 277°
2026-05-04 02:18 33.93159 -116.87554 13485 ft 350 kts 277°
2026-05-04 02:19 33.93613 -116.90434 13287 ft 350 kts 277°
2026-05-04 02:19 33.94064 -116.93310 13086 ft 349 kts 277°
2026-05-04 02:19 33.94514 -116.96177 12873 ft 348 kts 277°
2026-05-04 02:19 33.95071 -116.99033 12431 ft 353 kts 281°
2026-05-04 02:20 33.95729 -117.01882 12020 ft 351 kts 282°
2026-05-04 02:20 33.96381 -117.04690 11593 ft 346 kts 281°
2026-05-04 02:20 33.97010 -117.07467 11173 ft 340 kts 281°
2026-05-04 02:20 33.97608 -117.10153 10920 ft 332 kts 281°
2026-05-04 02:21 33.98192 -117.12817 10861 ft 330 kts 281°
2026-05-04 02:21 33.98781 -117.15520 10802 ft 336 kts 281°
2026-05-04 02:21 33.99380 -117.18263 10718 ft 340 kts 281°
2026-05-04 02:21 34.00004 -117.21025 10715 ft 342 kts 283°
2026-05-04 02:22 34.00695 -117.23770 10632 ft 343 kts 284°
2026-05-04 02:22 34.01403 -117.26514 10558 ft 342 kts 284°
2026-05-04 02:22 34.02108 -117.29245 10504 ft 341 kts 284°
2026-05-04 02:22 34.02808 -117.31977 10423 ft 341 kts 283°
2026-05-04 02:23 34.03504 -117.34705 10354 ft 339 kts 283°
2026-05-04 02:23 34.04192 -117.37423 10294 ft 339 kts 283°
2026-05-04 02:23 34.04877 -117.40133 10232 ft 338 kts 283°
2026-05-04 02:23 34.05559 -117.42833 10154 ft 332 kts 283°
2026-05-04 02:24 34.06219 -117.45447 10027 ft 318 kts 283°
2026-05-04 02:24 34.06846 -117.47929 9983 ft 299 kts 283°
2026-05-04 02:24 34.07418 -117.50234 9972 ft 278 kts 281°
2026-05-04 02:24 34.07821 -117.52470 9982 ft 269 kts 277°
2026-05-04 02:25 34.08150 -117.54677 10003 ft 274 kts 276°
2026-05-04 02:25 34.08481 -117.56961 9996 ft 279 kts 276°
2026-05-04 02:25 34.08821 -117.59274 10001 ft 281 kts 276°
2026-05-04 02:25 34.09168 -117.61591 9994 ft 280 kts 277°
2026-05-04 02:26 34.09518 -117.63893 10005 ft 279 kts 277°
2026-05-04 02:26 34.09869 -117.66191 10001 ft 278 kts 277°
2026-05-04 02:26 34.10210 -117.68411 9997 ft 278 kts 277°
2026-05-04 02:26 34.10564 -117.70709 9999 ft 277 kts 277°
2026-05-04 02:27 34.10915 -117.72991 10000 ft 277 kts 277°
2026-05-04 02:27 34.11267 -117.75275 9999 ft 277 kts 277°
2026-05-04 02:27 34.11619 -117.77564 10006 ft 277 kts 277°
2026-05-04 02:27 34.11971 -117.79854 10000 ft 278 kts 277°
2026-05-04 02:28 34.12324 -117.82149 10003 ft 279 kts 277°
2026-05-04 02:28 34.12677 -117.84453 9997 ft 279 kts 277°
2026-05-04 02:28 34.13029 -117.86766 9882 ft 283 kts 276°
2026-05-04 02:28 34.13299 -117.88566 9583 ft 287 kts 277°
2026-05-04 02:29 34.13653 -117.90902 9247 ft 278 kts 277°
2026-05-04 02:29 34.13996 -117.93177 8938 ft 275 kts 276°
2026-05-04 02:29 34.14334 -117.95447 8655 ft 274 kts 275°
2026-05-04 02:29 34.14618 -117.97351 8399 ft 272 kts 275°
2026-05-04 02:30 34.14953 -117.99583 8104 ft 270 kts 276°
2026-05-04 02:30 34.15177 -118.01846 8032 ft 270 kts 262°
2026-05-04 02:30 34.14948 -118.04051 8019 ft 260 kts 257°
2026-05-04 02:30 34.14711 -118.05890 7989 ft 248 kts 257°
2026-05-04 02:31 34.14427 -118.07879 7979 ft 234 kts 259°
2026-05-04 02:31 34.14196 -118.09785 8033 ft 229 kts 259°
2026-05-04 02:31 34.13959 -118.11679 7740 ft 236 kts 259°
2026-05-04 02:31 34.13824 -118.12778 7593 ft 233 kts 259°
2026-05-04 02:32 34.13616 -118.14573 7394 ft 228 kts 261°
2026-05-04 02:32 34.13472 -118.15820 7176 ft 222 kts 257°
2026-05-04 02:32 34.13183 -118.17647 6660 ft 224 kts 258°
2026-05-04 02:32 34.12958 -118.19545 6153 ft 230 kts 261°
2026-05-04 02:33 34.12798 -118.21457 5767 ft 228 kts 261°
2026-05-04 02:33 34.12623 -118.23349 5353 ft 227 kts 263°
2026-05-04 02:33 34.12500 -118.25257 5048 ft 228 kts 264°
2026-05-04 02:33 34.12389 -118.27173 5023 ft 231 kts 264°
2026-05-04 02:34 34.12219 -118.29091 5009 ft 229 kts 261°
2026-05-04 02:34 34.12045 -118.30988 4998 ft 226 kts 262°
2026-05-04 02:34 34.11855 -118.32877 5008 ft 227 kts 259°
2026-05-04 02:34 34.11610 -118.34770 5003 ft 228 kts 259°
2026-05-04 02:35 34.11427 -118.36661 4970 ft 226 kts 263°
2026-05-04 02:35 34.11286 -118.38546 4619 ft 226 kts 263°
2026-05-04 02:35 34.11147 -118.40422 4298 ft 223 kts 265°
2026-05-04 02:35 34.11054 -118.42259 4051 ft 221 kts 265°
2026-05-04 02:36 34.10938 -118.44119 4033 ft 224 kts 265°
2026-05-04 02:36 34.10802 -118.46009 4023 ft 223 kts 262°
2026-05-04 02:36 34.10640 -118.47867 4025 ft 223 kts 264°
2026-05-04 02:36 34.10485 -118.49563 4019 ft 223 kts 261°
2026-05-04 02:37 34.10301 -118.51387 4018 ft 223 kts 261°
2026-05-04 02:37 34.10092 -118.53233 4019 ft 223 kts 265°
2026-05-04 02:37 34.10388 -118.55021 3981 ft 213 kts 297°
2026-05-04 02:37 34.10859 -118.55979 3971 ft 203 kts 301°
2026-05-04 02:38 34.11575 -118.57342 3987 ft 195 kts 302°
2026-05-04 02:38 34.12299 -118.58718 3975 ft 193 kts 301°
2026-05-04 02:38 34.13009 -118.60084 3988 ft 193 kts 301°
2026-05-04 02:38 34.13664 -118.61376 3994 ft 195 kts 301°
2026-05-04 02:39 34.14357 -118.62750 3985 ft 196 kts 301°
2026-05-04 02:39 34.15062 -118.64156 3990 ft 196 kts 300°
2026-05-04 02:39 34.15769 -118.65563 3982 ft 197 kts 301°
2026-05-04 02:39 34.16226 -118.66459 3985 ft 196 kts 300°
2026-05-04 02:40 34.16654 -118.67106 3961 ft 197 kts 312°
2026-05-04 02:40 34.17310 -118.67672 3922 ft 198 kts 333°
2026-05-04 02:40 34.18055 -118.67907 3839 ft 201 kts 354°
2026-05-04 02:40 34.18861 -118.67767 3721 ft 202 kts 20°
2026-05-04 02:41 34.19503 -118.67268 3643 ft 201 kts 49°
2026-05-04 02:41 34.19893 -118.66364 3550 ft 201 kts 81°
2026-05-04 02:41 34.19967 -118.65412 3651 ft 187 kts 91°
2026-05-04 02:41 34.20014 -118.64413 3706 ft 185 kts 89°
2026-05-04 02:42 34.20064 -118.63500 3683 ft 193 kts 90°
2026-05-04 02:42 34.20092 -118.62363 3704 ft 195 kts 91°
2026-05-04 02:42 34.20096 -118.60757 3647 ft 196 kts 94°
2026-05-04 02:42 34.20082 -118.59361 3587 ft 195 kts 96°
2026-05-04 02:43 34.20060 -118.57743 3589 ft 194 kts 95°
2026-05-04 02:43 34.20039 -118.56142 3571 ft 194 kts 96°
2026-05-04 02:43 34.20015 -118.54525 3550 ft 198 kts 94°
2026-05-04 02:43 34.19992 -118.52840 3338 ft 204 kts 94°
2026-05-04 02:44 34.19971 -118.51125 3054 ft 205 kts 95°
2026-05-04 02:44 34.19946 -118.49426 2796 ft 198 kts 92°
2026-05-04 02:44 34.19927 -118.47786 2516 ft 191 kts 91°
2026-05-04 02:44 34.19907 -118.46221 2264 ft 181 kts 92°
2026-05-04 02:45 34.19888 -118.44760 2054 ft 164 kts 93°
2026-05-04 02:45 34.19871 -118.43423 1836 ft 153 kts 93°
2026-05-04 02:45 34.19854 -118.42189 1599 ft 142 kts 92°
2026-05-04 02:45 34.19840 -118.40999 1424 ft 142 kts 93°
2026-05-04 02:46 34.19826 -118.39836 1265 ft 136 kts 94°
2026-05-04 02:46 34.19812 -118.38705 1086 ft 134 kts 97°
2026-05-04 02:46 34.19801 -118.37579 894 ft 134 kts 94°
2026-05-04 02:46 34.19789 -118.36465 738 ft 127 kts 97°
2026-05-04 02:47 34.19774 -118.35685 726 ft 47 kts 91°
2026-05-04 02:47 34.19771 -118.35430 724 ft 24 kts 90°
2026-05-04 02:47 34.19769 -118.35259 722 ft 15 kts 96°
2026-05-04 02:47 34.19732 -118.35194 720 ft 9 kts 171°
2026-05-04 02:48 34.19707 -118.35195 721 ft 1 kts 182°
2026-05-04 02:48 34.19699 -118.35196 721 ft 1 kts 181°
2026-05-04 02:48 34.19691 -118.35196 719 ft 1 kts 180°
2026-05-04 02:48 34.19682 -118.35196 722 ft 1 kts 181°
2026-05-04 02:49 34.19677 -118.35196 720 ft 0 kts 181°